RH
99 91 95 95 90 96 83 88 94 95 98 96 94 80 94 77 83 85 89 99 94 97 89 92 72 64 62 60 68 62 91 78 57 47 46 45 45 46 48 47 43 40 45 48 45 44 40
92 94 86 86 75 92 90 85 81 91 99 95 92 82 85 79 65 84 84 99 100 98 99 85 57 66 66 56 66 85 52 61 55 50 52 48 52 51 50 52 51 53 56 52 49 51 50
98 98 99 95 90 82 96 81 83 87 93 96 84 84 85 69 78 90 86 93 100 99 88 66 65 65 51 54 61 66 63 68 59 52 58 56 52 51 57 59 59 57 62 57 47 45 49
98 96 98 96 84 80 86 78 92 92 93 96 86 83 77 64 69 91 89 100 97 88 82 74 64 65 67 54 58 66 64 59 58 50 56 61 58 55 53 61 61 67 65 82 51 47 47
97 94 94 99 86 97 87 79 93 97 98 93 83 80 62 50 56 98 100 99 91 86 70 69 68 64 65 61 60 55 54 55 59 60 60 60 62 64 67 81 85 74 85 85 71 53 56
81 89 96 90 82 85 82 82 87 94 93 89 77 67 49 61 59 100 99 98 80 64 81 79 74 59 58 54 50 49 53 55 60 64 67 68 72 90 90 92 88 83 92 83 80 58 55
99 61 99 83 92 89 86 83 91 92 88 78 67 62 77 48 46 100 82 81 81 84 82 78 66 58 57 54 54 50 52 58 59 65 78 80 94 97 92 88 70 71 84 89 73 59 66
99 69 93 76 87 82 84 86 84 82 88 66 58 97 93 93 85 96 86 84 87 70 74 66 60 57 54 59 61 57 59 62 66 84 79 83 91 76 74 74 81 85 91 82 71 61 64
98 61 77 92 75 80 80 86 91 90 68 58 53 99 98 100 100 89 79 76 77 63 60 59 64 66 63 60 63 64 64 67 81 84 91 78 73 72 78 80 85 80 86 86 90 68 71
95 53 75 86 72 75 79 87 80 66 56 59 45 82 99 96 92 91 80 70 76 72 87 72 66 65 65 66 75 65 68 76 86 82 81 88 72 80 84 83 71 87 66 74 80 96 95
72 54 71 74 74 75 75 66 58 66 72 47 45 87 86 74 87 92 92 72 71 64 71 56 68 66 69 72 73 81 81 86 91 89 92 81 91 90 95 74 68 76 62 70 80 99 97
54 66 68 76 69 70 65 60 59 80 92 88 86 79 81 84 88 90 88 63 60 73 72 68 67 71 77 72 74 89 90 90 96 90 88 92 83 85 79 63 58 63 91 87 96 99 100
60 73 68 70 85 70 63 59 53 72 81 90 94 90 89 88 97 84 66 64 78 82 49 63 73 74 75 79 74 82 94 98 97 92 92 86 88 79 76 86 82 96 100 97 97 96 96
84 75 84 68 93 82 70 66 55 63 78 86 90 79 74 75 76 68 72 72 83 56 63 53 65 64 70 66 70 80 90 91 90 84 87 88 84 87 75 92 100 100 100 98 96 97 96
67 84 88 86 87 86 74 70 68 62 76 92 83 72 74 72 65 70 76 91 82 71 61 57 54 61 64 52 56 67 84 76 66 64 86 88 86 63 70 71 89 91 100 94 100 99 88
51 63 78 84 79 73 69 77 92 86 80 70 70 65 60 59 67 76 82 81 66 56 61 54 64 56 56 53 57 60 70 66 71 60 66 70 92 66 60 69 74 84 75 95 98 94 96
42 49 55 60 61 65 62 55 90 88 79 70 65 67 71 71 72 67 91 78 58 52 60 58 62 57 54 58 58 64 73 64 62 65 66 66 79 74 60 61 70 72 77 65 63 89 97
45 40 41 44 51 48 49 75 77 73 70 61 70 92 70 63 66 83 81 66 61 54 57 58 54 53 54 55 63 59 65 64 58 61 68 58 74 91 65 56 52 57 64 64 80 71 81
50 46 35 32 35 31 58 78 87 87 75 71 77 77 62 67 88 87 64 60 61 64 62 57 55 50 46 51 60 56 56 51 56 58 57 58 79 89 54 48 56 72 60 62 67 76 89
53 53 48 32 30 32 63 71 75 76 85 72 72 89 59 64 81 72 67 56 57 56 62 52 54 48 48 55 53 55 55 50 52 51 55 61 72 74 75 66 70 72 65 66 70 91 87
59 54 58 54 31 38 54 67 66 68 78 82 73 80 80 91 70 70 68 61 58 63 56 51 50 63 61 58 58 66 60 60 50 50 52 57 68 70 63 62 58 55 65 73 73 68 74
59 66 60 68 63 46 50 61 60 64 64 69 79 78 72 71 66 66 75 60 55 57 62 59 61 62 67 66 64 65 64 59 62 57 60 60 69 66 62 50 49 52 53 58 64 68 74
49 66 71 69 69 71 62 63 58 61 69 65 67 76 76 72 71 70 70 63 59 60 57 58 62 66 60 60 60 56 57 57 56 54 63 60 71 81 78 59 54 60 51 54 54 61 69
24 55 74 75 76 79 82 74 59 52 49 52 58 71 72 82 78 68 60 62 66 64 68 59 61 62 58 56 54 54 55 54 52 50 54 61 66 76 83 52 59 44 45 45 52 59 63
10 36 57 80 81 79 82 61 57 54 52 54 63 74 72 83 73 64 56 64 64 62 65 67 63 61 60 61 64 58 54 48 50 55 53 58 66 67 62 68 42 49 50 56 50 44 64
19 10 43 62 82 86 81 71 72 73 61 54 59 59 60 74 71 61 67 59 75 75 77 67 60 54 56 74 68 56 60 47 48 48 53 61 63 62 71 51 47 27 45 43 37 49 59
22 14 16 48 61 74 83 81 78 88 86 69 51 54 66 72 66 67 68 70 72 74 82 75 62 59 62 79 76 81 66 48 55 58 51 64 69 70 70 80 62 40 49 40 39 24 56
25 21 13 32 55 67 71 82 84 89 92 85 70 53 58 66 66 64 66 68 74 74 83 70 67 62 78 71 79 75 72 61 62 53 52 53 72 76 74 70 58 51 52 52 38 54 49
36 21 18 41 49 65 68 72 82 90 96 89 83 75 61 62 68 69 68 67 69 64 62 73 73 75 77 83 82 80 67 72 64 62 49 64 56 54 59 58 40 47 40 36 43 44 49
Wind_Speed
33 34 28 25 22 21 23 19 18 16 15 11 8 5 6 9 10 8 19 7 17 16 14 9 5 9 9 6 5 8 8 8 7 9 7 7 5 2 0 3 6 2 4 13 13 15 15
40 29 25 23 23 21 18 15 15 14 7 11 6 5 5 9 7 7 18 12 25 20 13 8 10 12 9 5 11 10 6 8 6 8 7 6 3 2 2 2 1 6 10 13 13 18 15
30 28 26 25 22 19 15 13 12 9 8 7 5 4 5 8 2 6 17 17 28 20 13 12 14 13 11 7 9 9 7 6 3 6 7 4 0 2 2 3 7 8 6 9 10 11 6
32 28 24 23 21 14 12 9 10 5 5 8 3 4 4 7 1 11 17 27 18 12 16 17 15 15 7 10 9 8 8 6 3 1 1 1 2 2 2 4 6 5 2 4 4 3 6
33 26 24 22 19 17 6 6 9 8 6 4 3 5 2 4 4 7 28 23 15 19 18 17 14 9 6 8 9 7 11 6 2 1 2 1 2 1 0 2 3 2 4 5 7 1 4
37 22 20 19 19 16 8 7 2 5 4 4 1 4 1 4 4 26 20 16 20 23 20 14 10 9 5 4 10 7 9 6 6 4 1 1 1 2 3 3 3 4 4 6 8 3 13
31 25 19 17 21 15 6 7 8 5 7 4 6 6 5 14 13 24 34 36 22 10 8 7 2 9 13 10 9 9 8 8 4 3 2 2 3 5 8 8 3 2 7 14 17 18 15
33 20 17 18 20 15 10 7 8 6 9 6 13 16 17 24 26 28 18 13 10 13 10 11 9 10 8 6 4 7 6 3 3 2 2 3 7 8 7 8 7 8 15 19 15 13 7
26 16 16 19 18 19 12 12 12 12 9 11 13 16 23 29 26 14 13 13 17 15 7 6 6 3 3 5 1 9 8 4 1 2 4 6 5 6 4 9 12 14 14 15 14 13 13
19 17 17 16 16 17 21 17 14 14 12 11 18 17 17 18 13 14 11 11 13 4 5 2 0 2 2 3 4 8 8 2 2 3 2 6 5 8 7 10 9 13 8 14 14 7 3
17 18 20 19 19 17 16 18 16 16 16 18 22 20 18 10 17 11 9 10 8 1 5 3 3 3 2 2 10 3 3 2 2 4 3 3 3 6 5 6 6 10 4 9 7 10 4
23 23 22 20 19 17 18 19 17 18 23 23 22 16 13 13 13 11 10 10 3 5 1 3 3 2 1 3 5 3 2 4 3 3 6 8 6 4 4 7 12 11 7 9 2 2 2
24 24 23 19 18 18 18 19 18 19 20 22 18 12 9 10 12 13 12 4 4 6 3 2 3 4 4 5 6 7 5 4 4 2 3 1 3 3 6 7 4 4 2 3 2 1 3
24 24 23 22 18 17 15 15 16 16 15 13 11 7 13 21 18 11 2 5 8 2 4 2 4 4 3 5 5 6 2 3 6 3 2 5 7 3 5 5 3 4 2 2 4 3 3
20 21 22 21 18 13 14 15 15 15 17 12 6 6 13 14 10 2 2 6 5 3 2 1 1 0 3 3 3 5 5 3 1 2 2 4 5 4 8 6 7 2 2 2 3 2 3
17 15 15 13 14 13 12 14 14 14 11 7 7 16 11 6 1 6 4 4 2 3 2 1 1 3 2 3 1 4 3 2 3 0 3 2 4 6 5 2 7 6 3 1 2 4 3
24 19 17 12 10 10 10 13 18 15 8 4 3 4 3 6 8 5 4 1 1 3 0 2 1 1 2 2 3 3 3 1 1 3 4 1 2 6 2 1 3 3 4 2 3 2 3
25 21 19 14 10 9 10 15 15 18 17 7 3 3 3 8 4 3 2 2 3 4 3 1 1 2 0 2 3 1 0 3 2 2 2 2 2 4 7 3 3 3 4 2 3 1 2
22 20 19 15 11 10 11 14 16 19 19 11 4 3 9 10 3 3 2 2 3 5 3 4 3 1 1 1 2 1 1 3 3 1 2 1 2 4 8 6 6 4 6 4 2 3 1
17 18 14 14 10 9 9 11 16 19 18 12 4 4 6 8 5 2 2 2 3 3 4 3 3 4 3 5 4 2 3 2 3 3 3 0 2 3 4 5 3 7 13 7 3 4 2
10 12 13 10 8 6 5 8 11 19 20 9 6 2 4 3 5 3 2 1 1 3 3 6 3 5 3 3 3 4 3 5 3 8 2 2 1 2 4 5 3 2 6 10 6 3 3
5 5 7 10 5 4 2 6 4 10 15 17 5 5 5 4 9 6 5 2 0 0 3 3 3 5 5 2 0 2 3 3 2 6 5 3 1 2 3 5 4 3 4 6 6 5 6
6 3 2 6 8 5 3 5 6 7 10 5 5 4 5 4 3 3 3 4 4 3 0 1 1 2 3 3 5 9 8 11 7 2 2 2 3 2 3 5 5 6 4 2 1 2 6
7 8 5 3 4 3 2 4 6 8 8 4 3 2 3 3 1 2 4 5 5 4 2 4 3 1 2 7 13 11 12 12 8 5 3 1 2 1 2 3 3 5 2 3 4 4 5
8 9 10 9 7 6 3 2 3 8 10 5 1 2 2 1 3 6 6 3 5 6 4 5 4 5 7 6 3 4 3 3 3 5 4 2 3 1 1 2 5 3 4 5 5 6 8
9 10 12 12 13 12 10 7 3 3 8 7 3 4 5 3 5 5 2 3 1 2 6 4 6 4 7 4 3 2 2 2 4 7 2 3 4 3 2 1 5 4 2 5 3 6 11
10 11 13 14 15 15 17 15 10 4 3 5 6 3 5 4 6 5 5 5 2 1 2 4 4 1 2 2 1 2 3 2 3 3 3 1 2 3 1 2 7 5 7 7 4 6 12
13 11 12 14 15 16 17 19 17 10 5 4 5 5 3 5 8 9 10 8 8 6 2 2 1 2 3 1 1 2 2 3 2 4 3 5 4 4 2 3 7 10 6 7 6 2 18
15 14 11 13 14 14 16 18 19 18 11 6 5 7 8 8 6 10 12 15 11 9 8 5 2 3 3 2 1 2 2 1 2 4 1 3 6 3 7 5 4 27 6 20 5 12 17
Wind_Direction
336 325 322 322 319 317 317 309 308 296 270 232 236 271 296 298 290 251 208 208 195 203 210 222 183 165 147 113 114 113 130 139 144 138 119 104 81 35 358 331 339 227 320 315 307 305 297
330 328 325 321 321 319 318 317 319 307 272 227 207 252 298 318 304 237 198 184 176 205 191 179 165 155 143 84 126 141 143 130 101 114 97 116 95 60 82 346 351 316 299 304 310 298 289
338 339 338 332 320 316 318 313 321 295 257 220 195 254 290 318 331 244 182 177 170 191 156 146 153 147 114 121 134 143 122 140 137 139 95 95 180 243 354 306 327 308 318 319 282 273 262
346 345 346 337 338 339 332 323 337 305 187 169 200 240 274 316 26 100 158 168 158 143 139 144 144 142 98 125 140 161 158 142 180 142 196 96 352 281 270 316 342 324 345 308 272 294 259
346 348 355 351 356 347 337 344 12 87 101 114 174 213 356 308 236 121 145 152 153 130 135 133 128 115 109 164 179 194 172 183 166 29 91 76 279 247 245 91 334 302 269 268 306 332 276
355 350 0 358 0 7 17 37 42 43 69 98 73 22 355 179 161 139 152 142 124 122 116 114 110 99 134 159 168 176 174 199 195 208 215 305 69 52 13 81 251 263 323 281 276 258 312
332 346 2 15 8 8 34 65 70 74 78 77 60 59 52 157 162 129 125 115 106 94 84 68 107 78 125 136 147 170 184 185 214 175 190 52 55 250 226 225 242 306 272 276 281 286 285
350 352 19 24 25 37 48 82 78 92 100 86 83 83 79 120 130 127 119 116 124 129 100 76 90 102 125 144 138 173 182 161 183 215 73 9 265 255 242 234 232 246 272 279 284 273 262
8 12 38 38 47 45 76 81 92 103 90 85 97 101 119 129 128 115 111 114 131 124 94 62 93 83 148 167 122 172 197 197 90 261 207 248 241 266 277 265 262 258 262 270 258 297 269
23 30 44 44 48 66 80 85 85 84 84 91 113 115 117 121 125 110 133 152 143 133 85 347 176 113 151 146 54 179 188 181 142 278 286 252 272 242 259 259 243 282 240 250 265 283 268
52 46 50 51 64 77 82 86 81 82 82 105 120 118 115 107 119 120 146 168 160 282 73 250 103 148 157 163 148 182 211 137 226 222 176 251 214 238 275 242 166 242 298 279 269 285 290
57 50 48 53 64 75 80 73 75 92 80 92 99 90 93 111 120 118 158 163 178 42 15 336 120 155 137 208 201 157 205 213 234 246 233 264 298 234 242 269 237 261 307 283 210 281 289
54 49 54 54 63 70 76 72 84 91 101 102 96 76 124 119 113 123 135 143 43 81 279 233 190 168 229 199 187 185 196 189 207 286 332 283 247 270 226 280 202 239 263 297 279 323 259
47 49 51 58 69 67 77 77 97 94 98 124 93 67 108 121 127 120 77 55 70 200 206 215 157 209 236 161 241 202 222 246 230 257 311 19 343 236 186 222 260 260 220 274 353 353 353
43 45 50 56 67 63 67 64 82 96 90 108 90 68 113 118 130 27 95 53 171 221 268 33 34 173 290 253 220 199 199 355 220 147 92 17 282 261 225 203 175 1 263 265 297 290 62
34 32 34 55 62 71 69 66 78 83 84 83 87 95 90 112 236 341 72 113 153 222 311 74 67 207 219 312 231 159 10 291 318 317 163 258 288 231 289 157 216 207 208 251 309 358 36
35 30 26 36 59 74 68 81 78 39 39 21 324 84 58 1 7 36 94 133 240 297 29 147 160 357 330 313 8 59 319 250 297 304 208 241 209 289 278 203 261 318 307 251 114 162 57
34 35 34 41 54 73 90 97 58 26 10 354 55 42 359 12 62 33 49 353 333 337 11 326 192 241 146 354 21 84 285 224 311 275 305 195 200 271 246 269 283 224 291 276 118 337 39
48 34 40 42 54 74 95 102 49 33 20 20 49 36 4 12 90 13 318 356 350 11 349 0 330 26 316 294 100 315 328 281 272 252 215 338 335 329 347 2 354 9 326 302 87 89 338
40 48 40 43 50 72 100 88 51 35 28 39 35 15 14 40 53 66 52 11 352 345 301 338 296 357 352 19 6 35 341 289 335 304 282 177 90 136 176 229 259 329 333 353 95 81 142
32 53 55 48 54 59 109 122 57 36 30 42 45 66 11 329 352 4 353 285 86 347 334 7 348 29 309 4 3 1 336 336 326 341 113 100 87 22 270 266 292 281 328 355 51 176 125
357 33 74 58 73 100 84 219 262 17 29 40 46 11 352 322 331 352 346 339 30 198 16 352 47 332 10 94 291 316 341 342 298 326 9 348 210 69 292 327 4 346 345 359 18 51 59
285 296 72 98 83 97 87 4 305 313 349 11 32 10 346 338 18 22 292 321 338 12 189 68 323 315 331 305 292 286 284 283 259 278 305 7 128 79 276 351 341 320 228 184 240 278 157
258 258 260 205 145 131 116 46 33 3 342 288 236 166 112 293 336 221 323 324 336 337 286 319 325 279 309 299 297 273 268 268 260 253 221 188 106 106 253 18 359 253 300 216 222 225 234
261 254 249 244 233 215 210 142 71 36 22 8 63 154 159 204 230 311 318 318 334 323 322 308 309 324 322 317 14 354 332 317 252 232 212 173 128 118 143 223 285 283 236 190 181 266 187
268 247 246 244 240 235 224 216 245 38 30 15 360 261 229 176 229 204 245 287 223 300 329 277 305 315 351 30 39 10 275 288 313 331 199 81 72 119 140 182 232 251 199 159 107 292 185
273 262 245 245 246 238 235 230 228 257 354 349 357 314 226 244 230 211 198 174 202 204 226 297 336 313 328 47 19 201 265 228 278 275 215 356 353 198 195 252 285 225 158 132 101 245 169
275 263 256 247 252 248 240 236 232 234 248 272 282 336 275 255 255 249 227 200 169 178 185 310 24 339 21 27 164 255 209 256 316 244 207 190 164 211 146 221 281 154 110 167 224 278 179
264 264 257 254 250 244 240 238 232 230 233 238 288 303 307 262 266 255 248 221 217 228 191 181 182 203 170 104 285 308 303 324 198 286 315 256 192 207 190 219 239 186 204 210 210 185 192